Robinson, IL

5:38 PM CDT on May 25, 2017 (GMT -0500)
Robinson Municipal

Weather History for KRSV - May, 2013

Change the Weather History Date:

Wednesday, May 22, 2013

  Actual Average (KLWV) Record (KLWV)
Temperature  
Mean Temperature 72 °F -  
Max Temperature 79 °F 74 °F 90 °F (2004)
Min Temperature 64 °F 54 °F 41 °F (1997)
Cooling Degree Days 6    
Growing Degree Days 22 (Base 50)    
Moisture  
Dew Point 60 °F    
Average Humidity 70    
Maximum Humidity 88    
Minimum Humidity 47    
Precipitation  
Precipitation 0.02 in - - ()
Sea Level Pressure  
Sea Level Pressure 29.78 in    
Wind  
Wind Speed 11 mph (SSW)    
Max Wind Speed 23 mph    
Max Gust Speed 28 mph    
Visibility 10 miles    
Events Rain    
Averages and records for this station are not official NWS values.
T = Trace of Precipitation, MM = Missing Value Source: NWS Daily Summary

Daily Weather History Graph

Daily Weather History Graph

Search for Another Location

Airport or City:

Trip Planner

Search our weather history database for the weather conditions in past years. The results will help you decide how hot, cold, wet, or windy it might be!

Date:

Astronomy

May. 22, 2013 Rise Set
Actual Time 5:32 AM CDT 8:02 PM CDT
Civil Twilight 5:01 AM CDT 8:33 PM CDT
Nautical Twilight 4:23 AM CDT 9:12 PM CDT
Astronomical Twilight 3:40 AM CDT 9:54 PM CDT
Moon 5:25 PM CDT (5/22) 3:34 AM CDT (5/22)
Length of Visible Light 15h 32m
Length of Day
14h 30m
Waxing Gibbous, 91% of the Moon is Illuminated
May 22
Waxing Gibbous
May 24
Full
May 31
Last Quarter
Jun 8
New
Jun 16
First Quarter

Hourly Weather History & Observations

Time (CDT) Temp. Dew Point Humidity Pressure Visibility Wind Dir Wind Speed Gust Speed Precip Events Conditions
12:15 AM 68.5 °F 63.9 °F 85% 29.79 in 10.0 mi SSE 10.4 mph - N/A   Scattered Clouds
12:35 AM 68.9 °F 63.9 °F 84% 29.79 in 10.0 mi South 9.2 mph - N/A   Mostly Cloudy
12:55 AM 68.9 °F 63.5 °F 83% 29.78 in 10.0 mi South 10.4 mph 17.3 mph N/A   Mostly Cloudy
1:15 AM 68.5 °F 63.3 °F 83% 29.78 in 10.0 mi South 10.4 mph - N/A   Mostly Cloudy
1:35 AM 68.4 °F 63.3 °F 84% 29.77 in 10.0 mi South 11.5 mph - N/A   Overcast
1:55 AM 68.4 °F 63.0 °F 83% 29.76 in 10.0 mi South 9.2 mph - N/A   Scattered Clouds
2:15 AM 68.2 °F 62.8 °F 83% 29.75 in 10.0 mi SSE 8.1 mph - N/A   Clear
3:02 AM 68.0 °F 62.6 °F 83% 29.75 in 10.0 mi South 8.1 mph - N/A   Overcast
3:22 AM 68.0 °F 62.6 °F 83% 29.76 in 10.0 mi South 8.1 mph - N/A   Overcast
3:42 AM 68.0 °F 62.6 °F 83% 29.76 in 10.0 mi South 9.2 mph - N/A Rain Rain
4:02 AM 68.0 °F 62.6 °F 83% 29.76 in 10.0 mi South 9.2 mph - N/A Rain Rain
4:21 AM 68.0 °F 62.6 °F 83% 29.77 in 10.0 mi South 8.1 mph - N/A Rain Light Rain
4:42 AM 68.0 °F 64.4 °F 88% 29.77 in 10.0 mi South 9.2 mph - N/A Rain Rain
5:01 AM 68.0 °F 64.4 °F 88% 29.77 in 10.0 mi South 9.2 mph - N/A   Light Drizzle
5:19 AM 68.0 °F 64.4 °F 88% 29.77 in 10.0 mi South 10.4 mph - N/A   Overcast
5:37 AM 68.0 °F 62.6 °F 83% 29.77 in 10.0 mi South 9.2 mph - N/A   Overcast
5:57 AM 66.2 °F 62.6 °F 88% 29.73 in 10.0 mi ESE 4.6 mph - N/A   Mostly Cloudy
6:19 AM 66.2 °F 62.6 °F 88% 29.74 in 10.0 mi South 5.8 mph - N/A   Mostly Cloudy
6:37 AM 66.2 °F 62.6 °F 88% 29.74 in 10.0 mi SSE 5.8 mph - N/A   Mostly Cloudy
6:55 AM 67.6 °F 63.5 °F 87% 29.73 in 10.0 mi SE 9.2 mph - N/A   Scattered Clouds
7:15 AM 68.4 °F 64.0 °F 86% 29.75 in 10.0 mi SSE 11.5 mph - N/A   Scattered Clouds
7:35 AM 68.5 °F 63.7 °F 84% 29.75 in 10.0 mi South 10.4 mph 13.8 mph N/A   Mostly Cloudy
7:55 AM 69.3 °F 63.3 °F 81% 29.76 in 10.0 mi South 12.7 mph 20.7 mph N/A   Mostly Cloudy
8:15 AM 69.8 °F 63.0 °F 79% 29.76 in 10.0 mi South 13.8 mph 19.6 mph N/A   Overcast
8:35 AM 70.9 °F 63.3 °F 77% 29.76 in 10.0 mi South 12.7 mph - N/A   Mostly Cloudy
8:55 AM 71.1 °F 62.4 °F 74% 29.76 in 10.0 mi South 15.0 mph 24.2 mph N/A   Mostly Cloudy
9:15 AM 70.2 °F 60.6 °F 72% 29.77 in 10.0 mi SSW 16.1 mph 23.0 mph N/A   Overcast
9:35 AM 72.1 °F 61.7 °F 70% 29.77 in 10.0 mi South 18.4 mph - N/A   Overcast
9:55 AM 71.4 °F 60.8 °F 69% 29.77 in 10.0 mi South 15.0 mph - N/A   Mostly Cloudy
10:15 AM 73.9 °F 60.3 °F 62% 29.78 in 10.0 mi SSW 23.0 mph 27.6 mph N/A   Scattered Clouds
10:35 AM 72.9 °F 59.7 °F 63% 29.78 in 10.0 mi SSW 16.1 mph 21.9 mph N/A   Mostly Cloudy
10:55 AM 75.2 °F 60.4 °F 60% 29.78 in 10.0 mi SSW 18.4 mph 25.3 mph N/A   Mostly Cloudy
11:15 AM 75.4 °F 60.3 °F 59% 29.78 in 10.0 mi South 17.3 mph 24.2 mph N/A   Scattered Clouds
11:35 AM 75.6 °F 60.4 °F 59% 29.78 in 10.0 mi SSW 15.0 mph 23.0 mph N/A   Mostly Cloudy
11:55 AM 74.1 °F 59.9 °F 61% 29.78 in 10.0 mi South 17.3 mph 21.9 mph N/A   Overcast
12:15 PM 74.5 °F 60.1 °F 61% 29.79 in 10.0 mi SSW 16.1 mph - N/A   Overcast
12:35 PM 75.0 °F 60.3 °F 60% 29.79 in 10.0 mi SSW 15.0 mph - N/A   Overcast
12:55 PM 74.7 °F 59.9 °F 60% 29.78 in 10.0 mi South 15.0 mph - N/A   Overcast
1:15 PM 76.8 °F 59.5 °F 55% 29.78 in 10.0 mi South 16.1 mph 20.7 mph N/A   Mostly Cloudy
1:35 PM 76.6 °F 60.3 °F 57% 29.78 in 10.0 mi South 16.1 mph 21.9 mph N/A   Scattered Clouds
1:55 PM 73.6 °F 59.5 °F 61% 29.79 in 10.0 mi WSW 12.7 mph - N/A   Mostly Cloudy
2:15 PM 72.5 °F 60.1 °F 65% 29.78 in 10.0 mi SW 12.7 mph 17.3 mph N/A   Overcast
2:35 PM 77.5 °F 59.2 °F 53% 29.78 in 10.0 mi SW 11.5 mph 20.7 mph N/A   Scattered Clouds
2:55 PM 79.0 °F 58.5 °F 49% 29.78 in 10.0 mi WSW 10.4 mph 16.1 mph N/A   Clear
3:15 PM 78.1 °F 57.4 °F 49% 29.77 in 10.0 mi SW 12.7 mph 18.4 mph N/A   Scattered Clouds
3:35 PM 75.7 °F 58.3 °F 55% 29.76 in 10.0 mi WSW 13.8 mph - N/A   Mostly Cloudy
3:55 PM 78.3 °F 57.7 °F 49% 29.75 in 10.0 mi South 10.4 mph - N/A   Mostly Cloudy
4:15 PM 78.6 °F 57.6 °F 48% 29.75 in 10.0 mi SSW 15.0 mph 19.6 mph N/A   Scattered Clouds
4:35 PM 78.3 °F 57.4 °F 49% 29.75 in 10.0 mi SW 12.7 mph 19.6 mph N/A   Scattered Clouds
4:55 PM 76.6 °F 56.8 °F 50% 29.75 in 10.0 mi SW 11.5 mph - N/A   Mostly Cloudy
5:15 PM 78.6 °F 56.7 °F 47% 29.76 in 10.0 mi SSW 12.7 mph - N/A   Mostly Cloudy
5:35 PM 76.3 °F 55.4 °F 48% 29.76 in 10.0 mi SW 15.0 mph 18.4 mph N/A   Mostly Cloudy
5:55 PM 75.4 °F 54.1 °F 48% 29.76 in 10.0 mi SW 17.3 mph 24.2 mph N/A   Overcast
6:15 PM 73.8 °F 54.5 °F 51% 29.77 in 10.0 mi WSW 17.3 mph 25.3 mph N/A   Mostly Cloudy
6:35 PM 75.2 °F 54.3 °F 48% 29.77 in 10.0 mi WSW 9.2 mph - N/A   Mostly Cloudy
6:55 PM 74.1 °F 55.9 °F 53% 29.77 in 10.0 mi SW 6.9 mph - N/A   Clear
7:15 PM 73.2 °F 56.7 °F 56% 29.77 in 10.0 mi SSW 8.1 mph - N/A   Clear
7:35 PM 71.6 °F 58.1 °F 62% 29.78 in 10.0 mi SSW 5.8 mph - N/A   Scattered Clouds
7:55 PM 70.7 °F 59.2 °F 67% 29.78 in 10.0 mi South 4.6 mph - N/A   Mostly Cloudy
8:15 PM 70.0 °F 59.2 °F 68% 29.78 in 10.0 mi South 5.8 mph - N/A   Mostly Cloudy
8:35 PM 68.5 °F 59.2 °F 72% 29.78 in 10.0 mi South 4.6 mph - N/A   Mostly Cloudy
8:55 PM 69.1 °F 60.1 °F 73% 29.79 in 10.0 mi South 4.6 mph - N/A   Mostly Cloudy
9:15 PM 67.8 °F 60.8 °F 78% 29.81 in 10.0 mi West 11.5 mph - 0.02 in Rain Light Rain
9:35 PM 66.4 °F 60.8 °F 82% 29.81 in 10.0 mi WSW 5.8 mph - 0.02 in   Mostly Cloudy
9:55 PM 65.3 °F 60.8 °F 85% 29.82 in 10.0 mi WSW 5.8 mph - 0.02 in   Clear
10:15 PM 65.3 °F 60.4 °F 84% 29.82 in 10.0 mi West 6.9 mph - N/A   Clear
10:35 PM 66.2 °F 59.4 °F 79% 29.83 in 10.0 mi West 8.1 mph - N/A   Clear
10:55 PM 65.3 °F 58.6 °F 79% 29.83 in 10.0 mi West 4.6 mph - N/A   Scattered Clouds
11:15 PM 65.8 °F 58.6 °F 78% 29.84 in 10.0 mi West 4.6 mph - N/A   Mostly Cloudy
11:35 PM 64.9 °F 58.1 °F 78% 29.84 in 10.0 mi West 5.8 mph - N/A   Mostly Cloudy
11:55 PM 64.2 °F 57.4 °F 78% 29.84 in 10.0 mi West 5.8 mph - N/A   Clear